EW1549 Weather Reports


time (UTC)temp
C
wind
direction
speed
KPH
gust
KPH
rain 1hr
cm
rain 24hr
cm
rain mn
cm
humidity
%
barometer
mb
20260507230035 17 286 0.0 0.0 0.00 0.15 0.15 80 1014.1
20260507224533 17 286 1.6 6.4 0.00 0.15 0.15 80 1014.1
20260507223030 17 96 0.0 0.0 0.00 0.15 0.15 80 1014.0
20260507221530 17 96 0.0 0.0 0.00 0.15 0.15 79 1014.1
20260507220029 17 112 1.6 4.8 0.00 0.15 0.15 79 1014.0
20260507214527 17 202 0.0 0.0 0.00 0.15 0.15 78 1013.9
20260507213034 17 202 0.0 0.0 0.00 0.15 0.15 78 1013.7
20260507211537 17 202 3.2 8.0 0.00 0.15 0.15 79 1013.8
20260507210026 17 185 0.0 11.3 0.00 0.15 0.15 79 1013.8
20260507204525 17 167 0.0 0.0 0.00 0.15 0.15 79 1013.7
20260507203024 17 167 0.0 0.0 0.03 0.15 0.15 79 1013.5
20260507201534 17 167 0.0 6.4 0.03 0.15 0.15 78 1013.4
20260507200028 18 194 4.8 8.0 0.03 0.15 0.15 78 1013.3
20260507194522 18 186 0.0 4.8 0.03 0.15 0.15 77 1013.0
20260507193024 18 90 3.2 14.5 0.00 0.15 0.15 76 1013.0
20260507191524 19 342 3.2 9.7 0.00 0.15 0.15 75 1012.7
20260507190021 19 214 1.6 8.0 0.00 0.15 0.15 75 1012.5
20260507184520 19 205 6.4 16.1 0.00 0.15 0.15 75 1012.2
20260507183022 19 226 8.0 16.1 0.00 0.15 0.15 75 1012.1
20260507181518 19 255 6.4 11.3 0.00 0.15 0.15 75 1012.1
20260507180035 19 215 4.8 9.7 0.00 0.15 0.15 75 1012.2
20260507174521 20 303 3.2 12.9 0.00 0.15 0.15 75 1012.1
20260507173023 20 288 3.2 11.3 0.00 0.15 0.15 74 1012.1
20260507171514 20 23 8.0 12.9 0.00 0.15 0.15 75 1012.0
20260507170030 20 225 12.9 19.3 0.00 0.15 0.15 76 1012.1
20260507164613 19 212 8.0 12.9 0.00 0.15 0.15 78 1012.5
20260507163012 19 345 3.2 12.9 0.00 0.15 0.15 78 1012.7
20260507161511 19 231 0.0 0.0 0.03 0.15 0.15 80 1012.8
20260507160010 18 230 4.8 12.9 0.03 0.15 0.15 83 1013.0
20260507154510 18 257 3.2 8.0 0.03 0.15 0.15 85 1013.2
20260507153009 18 242 3.2 14.5 0.03 0.15 0.15 87 1013.5
20260507151515 18 213 4.8 11.3 0.00 0.13 0.13 86 1013.5
20260507150007 18 215 0.0 9.7 0.00 0.13 0.13 86 1013.7
20260507144507 18 227 6.4 14.5 0.00 0.13 0.13 87 1013.6
20260507143008 18 221 11.3 17.7 0.00 0.13 0.13 86 1013.7
20260507141610 18 252 11.3 16.1 0.03 0.13 0.13 87 1013.7
20260507140007 18 211 0.0 8.0 0.05 0.13 0.13 86 1013.8
20260507134508 18 229 1.6 6.4 0.05 0.13 0.13 86 1014.0
20260507133003 18 217 0.0 6.4 0.05 0.13 0.13 85 1014.1
20260507131503 19 217 8.0 14.5 0.03 0.10 0.10 84 1014.1
20260507130002 19 217 8.0 12.9 0.00 0.08 0.08 83 1014.0
20260507124602 19 227 4.8 8.0 0.00 0.08 0.08 84 1014.0
20260507123001 19 228 4.8 9.7 0.00 0.08 0.08 84 1014.0
20260507121601 19 230 6.4 12.9 0.00 0.08 0.08 82 1014.2
20260507120100 20 227 6.4 11.3 0.00 0.08 0.08 81 1014.0
20260507114601 20 224 4.8 11.3 0.00 0.08 0.08 79 1014.2
20260507113058 20 90 9.7 20.9 0.00 0.08 0.08 77 1013.9
20260507111557 20 77 8.0 16.1 0.00 0.08 0.08 77 1014.1
20260507110100 18 282 4.8 11.3 0.00 0.08 0.08 82 1014.1
20260507104601 18 285 6.4 12.9 0.00 0.08 0.08 83 1014.0
20260507103125 18 25 0.0 9.7 0.00 0.08 0.08 83 1014.0
20260507101552 18 239 3.2 11.3 0.00 0.08 0.08 83 1013.8
20260507100106 18 302 1.6 6.4 0.00 0.08 0.08 84 1013.6
20260507094552 18 308 3.2 8.0 0.00 0.08 0.08 84 1013.4
20260507093051 18 41 3.2 8.0 0.00 0.08 0.08 84 1013.5
20260507091550 18 324 1.6 6.4 0.00 0.08 0.08 83 1013.4
20260507090055 18 93 1.6 4.8 0.00 0.08 0.08 84 1013.5
20260507084558 17 108 1.6 3.2 0.00 0.08 0.08 84 1013.4
20260507083049 17 80 0.0 0.0 0.00 0.08 0.08 86 1013.4
20260507081546 17 225 0.0 3.2 0.00 0.08 0.08 87 1013.4
20260507080053 17 214 1.6 6.4 0.00 0.08 0.08 88 1013.2
20260507074546 16 233 0.0 6.4 0.00 0.08 0.08 87 1013.2
20260507073046 16 195 1.6 4.8 0.00 0.08 0.08 87 1012.9
20260507071547 16 191 1.6 8.0 0.00 0.08 0.08 87 1012.5
20260507070100 16 187 3.2 6.4 0.00 0.08 0.08 87 1012.5
20260507064550 16 173 3.2 6.4 0.00 0.08 0.08 87 1012.5
20260507063040 16 181 3.2 6.4 0.00 0.08 0.08 88 1012.4
20260507061540 16 156 3.2 4.8 0.00 0.08 0.08 89 1012.5
20260507060038 16 154 1.6 4.8 0.00 0.08 0.08 89 1012.4
20260507054556 16 194 3.2 6.4 0.00 0.08 0.08 88 1012.3
20260507053037 16 177 0.0 0.0 0.00 0.08 0.08 88 1012.1
20260507051539 16 239 0.0 3.2 0.00 0.08 0.08 88 1012.0
20260507050043 16 191 0.0 3.2 0.00 0.08 0.08 88 1012.1
20260507044539 16 152 1.6 4.8 0.00 0.08 0.08 88 1012.0
20260507043034 16 175 1.6 4.8 0.00 0.08 0.08 89 1012.1
20260507041532 16 204 0.0 3.2 0.00 0.08 0.08 89 1012.1
20260507040038 16 194 0.0 3.2 0.00 0.08 0.08 89 1012.0
20260507034532 16 196 3.2 6.4 0.00 0.08 0.08 89 1012.0
20260507033031 16 206 1.6 4.8 0.00 0.08 0.08 89 1012.1
20260507031532 16 139 0.0 4.8 0.00 0.08 0.08 88 1011.9
20260507030026 16 170 0.0 4.8 0.00 0.08 0.08 89 1012.1
20260507024532 16 160 0.0 4.8 0.00 0.08 0.08 89 1012.2
20260507023025 16 148 1.6 3.2 0.00 0.08 0.08 90 1012.2
20260507021529 16 240 0.0 4.8 0.00 0.08 0.08 90 1012.5
20260507020020 16 208 8.0 12.9 0.05 0.08 0.08 91 1012.8
20260507014518 16 270 3.2 11.3 0.08 0.08 0.08 91 1013.1
20260507013016 16 268 8.0 12.9 0.08 0.08 0.08 91 1013.2
20260507011517 17 256 4.8 8.0 0.08 0.08 0.08 90 1013.3
20260507010018 17 316 1.6 6.4 0.03 0.03 0.03 89 1013.5
20260507004509 17 219 1.6 6.4 0.00 0.00 0.00 88 1013.5
20260507003007 17 335 6.4 16.1 0.00 0.00 0.00 87 1013.6
20260507001504 18 310 3.2 8.0 0.00 0.00 0.00 85 1013.7
20260507000004 18 297 1.6 6.4 0.00 0.00 0.00 85 1013.9
20260506234501 18 175 0.0 3.2 0.00 0.00 0.00 85 1014.1
20260506233100 18 187 0.0 0.0 0.00 0.00 0.00 85 1014.2
20260506231557 18 187 0.0 3.2 0.00 0.00 0.00 85 1014.0